Time,TemperatureF,DewpointF,PressureIn,WindDirection,WindDirectionDegrees,WindSpeedMPH,WindSpeedGustMPH,Humidity,HourlyPrecipIn,Conditions,Clouds,dailyrainin,SoftwareType,DateUTC
2013-01-20 00:04:00,41.0,29.0,-100.00,SSW,205,0.0,10.0,63,0.00,,,-99.99,,2013-01-20 05:04:00,
2013-01-20 00:12:00,41.0,29.0,-100.00,South,190,4.0,10.0,63,0.00,,,-99.99,,2013-01-20 05:12:00,
2013-01-20 00:23:00,40.0,29.0,-100.00,SSW,200,1.0,7.0,64,0.00,,,-99.99,,2013-01-20 05:23:00,
2013-01-20 00:33:00,40.0,29.0,-100.00,SSW,200,1.0,7.0,64,0.00,,,-99.99,,2013-01-20 05:33:00,
2013-01-20 00:43:00,40.0,29.0,-100.00,WSW,245,1.0,6.0,66,0.00,,,-99.99,,2013-01-20 05:43:00,
2013-01-20 00:53:00,40.0,29.0,-100.00,WSW,245,1.0,6.0,66,0.00,,,-99.99,,2013-01-20 05:53:00,
2013-01-20 01:02:00,39.0,29.0,-100.00,West,260,1.0,4.0,68,0.00,,,-99.99,,2013-01-20 06:02:00,
2013-01-20 01:12:00,40.0,30.0,-100.00,SW,220,1.0,6.0,68,0.00,,,-99.99,,2013-01-20 06:12:00,
2013-01-20 01:22:00,40.0,30.0,-100.00,SW,220,1.0,6.0,68,0.00,,,-99.99,,2013-01-20 06:22:00,
2013-01-20 01:33:00,40.0,30.0,-100.00,SW,220,1.0,6.0,68,0.00,,,-99.99,,2013-01-20 06:33:00,
2013-01-20 01:43:00,39.0,30.0,-100.00,WSW,250,0.0,6.0,68,0.00,,,-99.99,,2013-01-20 06:43:00,
2013-01-20 01:52:00,38.0,29.0,-100.00,WSW,240,1.0,5.0,71,0.00,,,-99.99,,2013-01-20 06:52:00,
2013-01-20 02:02:00,38.0,29.0,-100.00,WSW,240,1.0,5.0,71,0.00,,,-99.99,,2013-01-20 07:02:00,
2013-01-20 02:12:00,38.0,30.0,-100.00,West,260,2.0,6.0,73,0.00,,,-99.99,,2013-01-20 07:12:00,
2013-01-20 02:22:00,38.0,30.0,-100.00,West,260,2.0,6.0,73,0.00,,,-99.99,,2013-01-20 07:22:00,
2013-01-20 02:32:00,37.0,30.0,-100.00,SSW,210,1.0,4.0,75,0.00,,,-99.99,,2013-01-20 07:32:00,
2013-01-20 02:42:00,37.0,30.0,-100.00,SW,235,0.0,7.0,75,0.00,,,-99.99,,2013-01-20 07:42:00,
2013-01-20 02:52:00,37.0,30.0,-100.00,SW,235,0.0,7.0,75,0.00,,,-99.99,,2013-01-20 07:52:00,
2013-01-20 03:02:00,37.0,30.0,-100.00,SW,235,0.0,7.0,75,0.00,,,-99.99,,2013-01-20 08:02:00,
2013-01-20 03:12:00,38.0,30.0,-100.00,West,275,0.0,2.0,74,0.00,,,-99.99,,2013-01-20 08:12:00,
2013-01-20 03:22:00,37.0,30.0,-100.00,South,185,0.0,2.0,74,0.00,,,-99.99,,2013-01-20 08:22:00,
2013-01-20 03:32:00,37.0,30.0,-100.00,South,185,0.0,2.0,74,0.00,,,-99.99,,2013-01-20 08:32:00,
2013-01-20 03:42:00,37.0,29.0,-100.00,SW,220,0.0,4.0,74,0.00,,,-99.99,,2013-01-20 08:42:00,
2013-01-20 03:53:00,36.0,30.0,-100.00,SW,225,0.0,3.0,76,0.00,,,-99.99,,2013-01-20 08:53:00,
2013-01-20 04:02:00,36.0,30.0,-100.00,SW,225,0.0,3.0,76,0.00,,,-99.99,,2013-01-20 09:02:00,
2013-01-20 04:12:00,36.0,30.0,-100.00,SW,225,0.0,3.0,76,0.00,,,-99.99,,2013-01-20 09:12:00,
2013-01-20 04:22:00,36.0,30.0,-100.00,South,190,1.0,4.0,77,0.00,,,-99.99,,2013-01-20 09:22:00,
2013-01-20 04:33:00,36.0,30.0,-100.00,South,190,1.0,4.0,77,0.00,,,-99.99,,2013-01-20 09:33:00,
2013-01-20 04:42:00,36.0,30.0,-100.00,SW,220,1.0,7.0,77,0.00,,,-99.99,,2013-01-20 09:42:00,
2013-01-20 04:53:00,36.0,30.0,-100.00,SSW,210,1.0,4.0,78,0.00,,,-99.99,,2013-01-20 09:53:00,
2013-01-20 05:02:00,36.0,30.0,-100.00,SSW,210,1.0,4.0,78,0.00,,,-99.99,,2013-01-20 10:02:00,
2013-01-20 05:12:00,36.0,30.0,-100.00,SSW,200,1.0,7.0,78,0.00,,,-99.99,,2013-01-20 10:12:00,
2013-01-20 05:23:00,36.0,30.0,-100.00,South,185,2.0,7.0,78,0.00,,,-99.99,,2013-01-20 10:23:00,
2013-01-20 05:32:00,36.0,30.0,-100.00,South,185,2.0,7.0,78,0.00,,,-99.99,,2013-01-20 10:32:00,
2013-01-20 05:42:00,36.0,30.0,-100.00,SW,225,3.0,7.0,78,0.00,,,-99.99,,2013-01-20 10:42:00,
2013-01-20 05:53:00,36.0,30.0,-100.00,South,175,1.0,4.0,79,0.00,,,-99.99,,2013-01-20 10:53:00,
2013-01-20 06:03:00,36.0,30.0,-100.00,South,175,1.0,4.0,79,0.00,,,-99.99,,2013-01-20 11:03:00,
2013-01-20 06:12:00,36.0,29.0,-100.00,SSW,195,1.0,6.0,78,0.00,,,-99.99,,2013-01-20 11:12:00,
2013-01-20 06:22:00,35.0,29.0,-100.00,South,185,1.0,4.0,78,0.00,,,-99.99,,2013-01-20 11:22:00,
2013-01-20 06:33:00,35.0,29.0,-100.00,South,185,1.0,4.0,78,0.00,,,-99.99,,2013-01-20 11:33:00,
2013-01-20 06:43:00,35.0,29.0,-100.00,South,190,1.0,3.0,79,0.00,,,-99.99,,2013-01-20 11:43:00,
2013-01-20 06:53:00,35.0,29.0,-100.00,SW,230,1.0,9.0,80,0.00,,,-99.99,,2013-01-20 11:53:00,
2013-01-20 07:03:00,35.0,29.0,-100.00,SW,230,1.0,9.0,80,0.00,,,-99.99,,2013-01-20 12:03:00,
2013-01-20 07:13:00,35.0,30.0,-100.00,SW,225,2.0,4.0,82,0.00,,,-99.99,,2013-01-20 12:13:00,
2013-01-20 07:23:00,34.0,30.0,-100.00,West,260,1.0,4.0,84,0.00,,,-99.99,,2013-01-20 12:23:00,
2013-01-20 07:33:00,34.0,30.0,-100.00,West,260,1.0,4.0,84,0.00,,,-99.99,,2013-01-20 12:33:00,
2013-01-20 07:43:00,34.0,30.0,-100.00,West,260,1.0,4.0,84,0.00,,,-99.99,,2013-01-20 12:43:00,
2013-01-20 07:52:00,35.0,31.0,-100.00,SSW,210,2.0,9.0,84,0.00,,,-99.99,,2013-01-20 12:52:00,
2013-01-20 08:03:00,35.0,31.0,-100.00,SSW,210,2.0,9.0,84,0.00,,,-99.99,,2013-01-20 13:03:00,
2013-01-20 08:12:00,35.0,31.0,-100.00,SSW,210,2.0,7.0,84,0.00,,,-99.99,,2013-01-20 13:12:00,
2013-01-20 08:23:00,36.0,31.0,-100.00,SW,220,2.0,6.0,82,0.00,,,-99.99,,2013-01-20 13:23:00,
2013-01-20 08:33:00,36.0,31.0,-100.00,SW,220,2.0,6.0,82,0.00,,,-99.99,,2013-01-20 13:33:00,
2013-01-20 08:43:00,36.0,31.0,-100.00,SW,220,2.0,5.0,81,0.00,,,-99.99,,2013-01-20 13:43:00,
2013-01-20 09:03:00,36.0,32.0,-100.00,SW,220,1.0,3.0,83,0.00,,,-99.99,,2013-01-20 14:03:00,
2013-01-20 09:12:00,39.0,33.0,-100.00,South,180,0.0,3.0,78,0.00,,,-99.99,,2013-01-20 14:12:00,
2013-01-20 09:23:00,42.0,34.0,-100.00,SW,225,2.0,7.0,73,0.00,,,-99.99,,2013-01-20 14:23:00,
2013-01-20 09:33:00,42.0,34.0,-100.00,SW,225,2.0,7.0,73,0.00,,,-99.99,,2013-01-20 14:33:00,
2013-01-20 09:43:00,42.0,34.0,-100.00,SW,225,2.0,7.0,73,0.00,,,-99.99,,2013-01-20 14:43:00,
2013-01-20 09:53:00,42.0,34.0,-100.00,SW,225,2.0,7.0,73,0.00,,,-99.99,,2013-01-20 14:53:00,
2013-01-20 10:03:00,44.0,34.0,-100.00,SSW,205,2.0,4.0,66,0.00,,,-99.99,,2013-01-20 15:03:00,
2013-01-20 10:12:00,46.0,33.0,-100.00,SW,230,2.0,6.0,60,0.00,,,-99.99,,2013-01-20 15:12:00,
2013-01-20 10:23:00,49.0,35.0,-100.00,SSW,195,2.0,6.0,58,0.00,,,-99.99,,2013-01-20 15:23:00,
2013-01-20 10:33:00,49.0,35.0,-100.00,SSW,195,2.0,6.0,58,0.00,,,-99.99,,2013-01-20 15:33:00,
2013-01-20 10:43:00,51.0,34.0,-100.00,SW,230,2.0,6.0,53,0.00,,,-99.99,,2013-01-20 15:43:00,
2013-01-20 10:53:00,51.0,34.0,-100.00,SW,230,2.0,6.0,53,0.00,,,-99.99,,2013-01-20 15:53:00,
2013-01-20 11:03:00,51.0,34.0,-100.00,SW,230,2.0,6.0,53,0.00,,,-99.99,,2013-01-20 16:03:00,
2013-01-20 11:12:00,53.0,33.0,-100.00,SW,230,6.0,16.0,47,0.00,,,-99.99,,2013-01-20 16:12:00,
2013-01-20 11:23:00,53.0,33.0,-100.00,SW,230,6.0,16.0,47,0.00,,,-99.99,,2013-01-20 16:23:00,
2013-01-20 11:33:00,54.0,32.0,-100.00,West,275,17.0,30.0,43,0.00,,,-99.99,,2013-01-20 16:33:00,
2013-01-20 11:43:00,54.0,31.0,-100.00,WNW,285,14.0,24.0,41,0.00,,,-99.99,,2013-01-20 16:43:00,
2013-01-20 11:53:00,54.0,31.0,-100.00,WNW,285,14.0,24.0,41,0.00,,,-99.99,,2013-01-20 16:53:00,
2013-01-20 12:03:00,54.0,31.0,-100.00,WSW,255,11.0,29.0,40,0.00,,,-99.99,,2013-01-20 17:03:00,
2013-01-20 12:13:00,54.0,30.0,-100.00,WNW,300,17.0,27.0,39,0.00,,,-99.99,,2013-01-20 17:13:00,
2013-01-20 12:23:00,55.0,29.0,-100.00,WNW,300,12.0,30.0,38,0.00,,,-99.99,,2013-01-20 17:23:00,
2013-01-20 12:33:00,55.0,29.0,-100.00,WNW,300,12.0,30.0,38,0.00,,,-99.99,,2013-01-20 17:33:00,
2013-01-20 12:42:00,54.0,29.0,-100.00,West,280,15.0,30.0,38,0.00,,,-99.99,,2013-01-20 17:42:00,
2013-01-20 12:53:00,54.0,29.0,-100.00,West,260,14.0,32.0,37,0.00,,,-99.99,,2013-01-20 17:53:00,
2013-01-20 13:03:00,54.0,29.0,-100.00,West,260,14.0,32.0,37,0.00,,,-99.99,,2013-01-20 18:03:00,
2013-01-20 13:13:00,54.0,28.0,-100.00,West,280,9.0,31.0,36,0.00,,,-99.99,,2013-01-20 18:13:00,
2013-01-20 13:23:00,55.0,28.0,-100.00,WNW,285,6.0,26.0,36,0.00,,,-99.99,,2013-01-20 18:23:00,
2013-01-20 13:33:00,55.0,28.0,-100.00,WNW,285,6.0,26.0,36,0.00,,,-99.99,,2013-01-20 18:33:00,
2013-01-20 13:43:00,54.0,28.0,-100.00,WSW,255,14.0,26.0,36,0.00,,,-99.99,,2013-01-20 18:43:00,
2013-01-20 13:53:00,54.0,27.0,-100.00,West,265,11.0,32.0,35,0.00,,,-99.99,,2013-01-20 18:53:00,
2013-01-20 14:03:00,54.0,27.0,-100.00,West,265,11.0,32.0,35,0.00,,,-99.99,,2013-01-20 19:03:00,
2013-01-20 14:12:00,54.0,27.0,-100.00,WSW,255,11.0,29.0,35,0.00,,,-99.99,,2013-01-20 19:12:00,
2013-01-20 14:22:00,54.0,27.0,-100.00,WSW,255,11.0,29.0,35,0.00,,,-99.99,,2013-01-20 19:22:00,
2013-01-20 14:33:00,54.0,27.0,-100.00,West,280,10.0,24.0,35,0.00,,,-99.99,,2013-01-20 19:33:00,
2013-01-20 14:43:00,54.0,26.0,-100.00,West,260,12.0,26.0,34,0.00,,,-99.99,,2013-01-20 19:43:00,
2013-01-20 14:52:00,54.0,24.0,-100.00,WNW,295,11.0,23.0,31,0.00,,,-99.99,,2013-01-20 19:52:00,
2013-01-20 15:03:00,54.0,24.0,-100.00,WNW,295,11.0,23.0,31,0.00,,,-99.99,,2013-01-20 20:03:00,
2013-01-20 15:12:00,52.0,21.0,-100.00,WNW,300,13.0,23.0,29,0.00,,,-99.99,,2013-01-20 20:12:00,
2013-01-20 15:23:00,52.0,20.0,-100.00,WSW,255,8.0,20.0,28,0.00,,,-99.99,,2013-01-20 20:23:00,
2013-01-20 15:33:00,52.0,20.0,-100.00,WSW,255,8.0,20.0,28,0.00,,,-99.99,,2013-01-20 20:33:00,
2013-01-20 15:42:00,51.0,18.0,-100.00,WNW,300,12.0,25.0,27,0.00,,,-99.99,,2013-01-20 20:42:00,
2013-01-20 15:53:00,51.0,17.0,-100.00,WNW,290,14.0,29.0,26,0.00,,,-99.99,,2013-01-20 20:53:00,
2013-01-20 16:04:00,51.0,17.0,-100.00,WNW,290,14.0,29.0,26,0.00,,,-99.99,,2013-01-20 21:04:00,
2013-01-20 16:13:00,50.0,17.0,-100.00,WSW,250,10.0,27.0,26,0.00,,,-99.99,,2013-01-20 21:13:00,
2013-01-20 16:23:00,50.0,17.0,-100.00,WSW,250,10.0,27.0,26,0.00,,,-99.99,,2013-01-20 21:23:00,
2013-01-20 16:33:00,49.0,17.0,-100.00,West,260,10.0,22.0,27,0.00,,,-99.99,,2013-01-20 21:33:00,
2013-01-20 16:43:00,48.0,17.0,-100.00,WNW,295,7.0,22.0,28,0.00,,,-99.99,,2013-01-20 21:43:00,
2013-01-20 16:53:00,48.0,17.0,-100.00,WNW,295,7.0,22.0,28,0.00,,,-99.99,,2013-01-20 21:53:00,
2013-01-20 17:03:00,48.0,16.0,-100.00,NW,325,6.0,21.0,28,0.00,,,-99.99,,2013-01-20 22:03:00,
2013-01-20 17:13:00,46.0,15.0,-100.00,NW,315,11.0,24.0,28,0.00,,,-99.99,,2013-01-20 22:13:00,
2013-01-20 17:23:00,46.0,15.0,-100.00,NW,315,11.0,24.0,28,0.00,,,-99.99,,2013-01-20 22:23:00,
2013-01-20 17:33:00,45.0,14.0,-100.00,West,280,8.0,17.0,28,0.00,,,-99.99,,2013-01-20 22:33:00,
2013-01-20 17:43:00,45.0,14.0,-100.00,NW,305,6.0,16.0,28,0.00,,,-99.99,,2013-01-20 22:43:00,
2013-01-20 17:52:00,44.0,14.0,-100.00,West,275,4.0,14.0,30,0.00,,,-99.99,,2013-01-20 22:52:00,
2013-01-20 18:03:00,44.0,14.0,-100.00,West,275,4.0,14.0,30,0.00,,,-99.99,,2013-01-20 23:03:00,
2013-01-20 18:13:00,43.0,14.0,-100.00,NW,320,4.0,14.0,31,0.00,,,-99.99,,2013-01-20 23:13:00,
2013-01-20 18:23:00,43.0,15.0,-100.00,WNW,290,4.0,12.0,32,0.00,,,-99.99,,2013-01-20 23:23:00,
2013-01-20 18:33:00,43.0,15.0,-100.00,WNW,290,4.0,12.0,32,0.00,,,-99.99,,2013-01-20 23:33:00,
2013-01-20 18:43:00,41.0,15.0,-100.00,NW,305,1.0,7.0,34,0.00,,,-99.99,,2013-01-20 23:43:00,
2013-01-20 18:53:00,41.0,15.0,-100.00,NW,305,1.0,7.0,34,0.00,,,-99.99,,2013-01-20 23:53:00,
2013-01-20 19:03:00,40.0,15.0,-100.00,NW,325,1.0,7.0,36,0.00,,,-99.99,,2013-01-21 00:03:00,
2013-01-20 19:13:00,40.0,15.0,-100.00,SW,225,0.0,5.0,36,0.00,,,-99.99,,2013-01-21 00:13:00,
2013-01-20 19:23:00,40.0,15.0,-100.00,NE,35,2.0,5.0,36,0.00,,,-99.99,,2013-01-21 00:23:00,
2013-01-20 19:33:00,40.0,15.0,-100.00,NE,35,2.0,5.0,36,0.00,,,-99.99,,2013-01-21 00:33:00,
2013-01-20 19:43:00,40.0,15.0,-100.00,NE,40,1.0,6.0,36,0.00,,,-99.99,,2013-01-21 00:43:00,
2013-01-20 19:53:00,39.0,15.0,-100.00,ENE,75,1.0,7.0,37,0.00,,,-99.99,,2013-01-21 00:53:00,
2013-01-20 20:03:00,39.0,15.0,-100.00,ENE,75,1.0,7.0,37,0.00,,,-99.99,,2013-01-21 01:03:00,
2013-01-20 20:13:00,39.0,15.0,-100.00,WNW,300,0.0,6.0,38,0.00,,,-99.99,,2013-01-21 01:13:00,
2013-01-20 20:23:00,38.0,14.0,-100.00,NE,45,1.0,4.0,38,0.00,,,-99.99,,2013-01-21 01:23:00,
2013-01-20 20:33:00,38.0,14.0,-100.00,NE,45,1.0,4.0,38,0.00,,,-99.99,,2013-01-21 01:33:00,
2013-01-20 20:43:00,37.0,15.0,-100.00,WSW,255,0.0,4.0,40,0.00,,,-99.99,,2013-01-21 01:43:00,
2013-01-20 20:53:00,36.0,15.0,-100.00,ENE,75,0.0,4.0,41,0.00,,,-99.99,,2013-01-21 01:53:00,
2013-01-20 21:03:00,36.0,15.0,-100.00,ENE,75,0.0,4.0,41,0.00,,,-99.99,,2013-01-21 02:03:00,
2013-01-20 21:13:00,36.0,15.0,-100.00,East,80,2.0,4.0,42,0.00,,,-99.99,,2013-01-21 02:13:00,
2013-01-20 21:23:00,35.0,14.0,-100.00,North,5,2.0,4.0,42,0.00,,,-99.99,,2013-01-21 02:23:00,
2013-01-20 21:33:00,35.0,14.0,-100.00,North,5,2.0,4.0,42,0.00,,,-99.99,,2013-01-21 02:33:00,
2013-01-20 21:43:00,35.0,15.0,-100.00,ENE,60,1.0,3.0,45,0.00,,,-99.99,,2013-01-21 02:43:00,
2013-01-20 21:53:00,33.0,17.0,-100.00,West,265,0.0,2.0,52,0.00,,,-99.99,,2013-01-21 02:53:00,
2013-01-20 22:03:00,33.0,17.0,-100.00,West,265,0.0,2.0,52,0.00,,,-99.99,,2013-01-21 03:03:00,
2013-01-20 22:13:00,33.0,18.0,-100.00,West,275,0.0,3.0,54,0.00,,,-99.99,,2013-01-21 03:13:00,
2013-01-20 22:23:00,33.0,18.0,-100.00,West,275,0.0,3.0,54,0.00,,,-99.99,,2013-01-21 03:23:00,
2013-01-20 22:33:00,33.0,18.0,-100.00,West,280,0.0,2.0,56,0.00,,,-99.99,,2013-01-21 03:33:00,
2013-01-20 22:43:00,32.0,19.0,-100.00,SE,140,0.0,3.0,57,0.00,,,-99.99,,2013-01-21 03:43:00,
2013-01-20 22:53:00,32.0,19.0,-100.00,SSE,160,0.0,4.0,58,0.00,,,-99.99,,2013-01-21 03:53:00,
2013-01-20 23:03:00,32.0,19.0,-100.00,SSE,160,0.0,4.0,58,0.00,,,-99.99,,2013-01-21 04:03:00,
2013-01-20 23:13:00,33.0,18.0,-100.00,ESE,115,2.0,4.0,56,0.00,,,-99.99,,2013-01-21 04:13:00,
2013-01-20 23:23:00,33.0,19.0,-100.00,East,95,0.0,4.0,56,0.00,,,-99.99,,2013-01-21 04:23:00,
2013-01-20 23:33:00,33.0,19.0,-100.00,East,95,0.0,4.0,56,0.00,,,-99.99,,2013-01-21 04:33:00,
2013-01-20 23:43:00,32.0,19.0,-100.00,West,280,0.0,3.0,58,0.00,,,-99.99,,2013-01-21 04:43:00,
2013-01-20 23:53:00,32.0,19.0,-100.00,West,275,0.0,4.0,60,0.00,,,-99.99,,2013-01-21 04:53:00,